XML Sitemap

This is a XML Sitemap which is supposed to be processed by search engines which follow the XML Sitemap standard like Ask.com, Bing, Google and Yahoo.
It was generated using the WordPress content management system and the Google Sitemap Generator Plugin by Arne Brachhold.
You can find more information about XML sitemaps on sitemaps.org and Google's list of sitemap programs.

URLPriorityChange frequencyLast modified (GMT)
http://www.ilustradordigital.es/lo-amenazan-para-que-haga-transferencias-bancarias90%Daily2015-08-31 15:39
http://www.ilustradordigital.es/fallece-ahogado-en-la-playa-de-las-canteras90%Daily2015-08-31 14:21
http://www.ilustradordigital.es/2015-08-31-12-43-5890%Daily2015-08-31 12:39
http://www.ilustradordigital.es/las-palmas-no-pasa-del-empate-ante-el-levante-0-090%Daily2015-08-31 07:30
http://www.ilustradordigital.es/2015-08-31-07-17-1090%Daily2015-08-31 07:14
http://www.ilustradordigital.es/2015-08-31-07-13-2790%Daily2015-08-31 07:11
http://www.ilustradordigital.es/el-cd-tenerife-pierde-su-primer-partido-en-casa-1-290%Daily2015-08-31 07:08
http://www.ilustradordigital.es/2015-08-30-07-12-5490%Daily2015-08-30 07:09
http://www.ilustradordigital.es/2015-08-30-06-55-1490%Daily2015-08-30 06:54
http://www.ilustradordigital.es/2015-08-30-06-43-0290%Daily2016-04-21 11:08
http://www.ilustradordigital.es/2015-08-30-06-30-5490%Daily2015-08-30 06:17
http://www.ilustradordigital.es/un-coche-en-sentido-contrario-provoca-dos-muertes-en-tenerife90%Daily2015-08-30 05:59
http://www.ilustradordigital.es/huelga-en-las-cerveceras-canarias90%Daily2015-08-29 07:28
http://www.ilustradordigital.es/fotografiaba-a-menores-en-una-piscina-de-maspalomas90%Daily2015-08-29 07:13
http://www.ilustradordigital.es/harmandir-sahir-el-templo-dorado90%Daily2016-04-21 15:17
http://www.ilustradordigital.es/muere-en-un-accidente-de-kart-en-lanzarote90%Daily2015-08-29 07:04
http://www.ilustradordigital.es/a-grandes-males-grandes-remedios90%Daily2016-04-22 09:58
http://www.ilustradordigital.es/2015-08-28-17-53-5290%Daily2015-08-28 17:46
http://www.ilustradordigital.es/2015-08-28-17-24-3390%Daily2015-08-28 17:21
http://www.ilustradordigital.es/la-pasarela-de-icod-el-alto-sigue-siendo-un-riesgo-para-los-peatones90%Daily2015-08-28 06:57
http://www.ilustradordigital.es/2015-08-28-06-48-3890%Daily2015-08-28 06:47
http://www.ilustradordigital.es/2015-08-28-06-42-3990%Daily2015-08-28 06:42
http://www.ilustradordigital.es/2015-08-28-06-37-3790%Daily2015-08-28 06:31
http://www.ilustradordigital.es/2015-08-27-17-15-4690%Daily2015-08-27 17:12
http://www.ilustradordigital.es/2015-08-27-17-01-3690%Daily2015-08-27 16:56
http://www.ilustradordigital.es/2015-08-27-16-54-0990%Daily2015-08-27 16:40
http://www.ilustradordigital.es/2015-08-27-09-08-4590%Daily2015-08-27 09:07
http://www.ilustradordigital.es/investigado-un-mando-de-la-guardia-civil-en-canarias90%Daily2015-08-27 08:50
http://www.ilustradordigital.es/2015-08-27-07-17-2190%Daily2015-08-27 07:11
http://www.ilustradordigital.es/teror-abre-la-primera-oficina-municipal-antidesahucios-de-canarias90%Daily2015-08-27 06:55
http://www.ilustradordigital.es/nuevo-pliego-de-alegaciones-contra-la-regasificadora-de-tenerife90%Daily2015-08-26 15:55
http://www.ilustradordigital.es/2015-08-26-12-35-0390%Daily2015-08-26 12:29
http://www.ilustradordigital.es/2015-08-26-07-06-3790%Daily2015-08-26 07:05
http://www.ilustradordigital.es/fallece-electrocutado-en-un-edificio-de-gran-canaria90%Daily2015-08-26 07:01
http://www.ilustradordigital.es/2015-08-26-06-53-3090%Daily2015-08-26 06:53
http://www.ilustradordigital.es/770-euros-de-multa-por-robar-una-bicicleta-de-bybike90%Daily2015-08-25 17:20
http://www.ilustradordigital.es/2015-08-25-17-11-5790%Daily2015-08-25 17:09
http://www.ilustradordigital.es/2015-08-25-17-03-1190%Daily2016-04-22 10:43
http://www.ilustradordigital.es/2015-08-25-16-50-3990%Daily2015-08-25 16:46
http://www.ilustradordigital.es/isla-bonita-summer-closing90%Daily2015-08-25 07:20
http://www.ilustradordigital.es/2015-08-25-07-08-3990%Daily2015-08-25 07:08
http://www.ilustradordigital.es/2015-08-25-07-00-5390%Daily2015-08-25 07:00
http://www.ilustradordigital.es/2015-08-25-06-53-5190%Daily2015-08-25 06:53
http://www.ilustradordigital.es/2015-08-24-08-48-4290%Daily2015-08-24 08:40
http://www.ilustradordigital.es/2015-08-24-08-34-0190%Daily2015-08-24 08:24
http://www.ilustradordigital.es/fallece-un-submarinista-en-tenerife90%Daily2015-08-24 08:16
http://www.ilustradordigital.es/2015-08-23-16-45-5390%Daily2015-08-23 16:35
http://www.ilustradordigital.es/2015-08-23-10-11-1990%Daily2015-08-23 10:09
http://www.ilustradordigital.es/la-ud-las-palmas-se-estrena-con-fuerza-pero-sin-victoria90%Daily2015-08-23 09:52
http://www.ilustradordigital.es/2015-08-23-09-35-4190%Daily2015-08-23 09:32
http://www.ilustradordigital.es/evento-frontera90%Daily2016-04-21 11:10
http://www.ilustradordigital.es/santa-cruz-bella-ciudad-de-fuentes-escondidas-secas-o-rotas90%Daily2016-04-22 09:58
http://www.ilustradordigital.es/accidente-con-fuegos-artificiales-en-el-cotillo90%Daily2015-08-22 16:17
http://www.ilustradordigital.es/grave-desprendimiento-en-una-carretera-de-el-hierro90%Daily2015-08-22 16:12
http://www.ilustradordigital.es/desmantelan-un-club-de-cannabis-en-granadilla90%Daily2015-08-22 16:02
http://www.ilustradordigital.es/cc-nc-presentan-una-enmienda-a-la-totalidad-a-los-pge90%Daily2015-08-22 08:47
http://www.ilustradordigital.es/2015-08-22-08-42-5990%Daily2015-08-22 08:31
http://www.ilustradordigital.es/2015-08-21-08-13-2390%Daily2015-08-21 08:11
http://www.ilustradordigital.es/2015-08-21-08-05-2290%Daily2015-08-21 08:02
http://www.ilustradordigital.es/la-avjk5022-vuelve-a-reclamar-justicia90%Daily2015-08-21 07:57
http://www.ilustradordigital.es/ahogamiento-en-la-playa-de-las-canteras90%Daily2015-08-21 07:53
http://www.ilustradordigital.es/paralizado-el-proyecto-de-la-depuradora-en-lanzarote90%Daily2015-08-21 07:49
http://www.ilustradordigital.es/el-truco-mejor-escondido-de-leonardo-da-vinci90%Daily2016-04-21 16:21
http://www.ilustradordigital.es/2015-08-20-07-44-4290%Daily2015-08-20 07:42
http://www.ilustradordigital.es/ahogado-en-una-piscina-de-gran-canaria90%Daily2015-08-20 07:38
http://www.ilustradordigital.es/2015-08-20-07-36-4690%Daily2015-08-20 07:32
http://www.ilustradordigital.es/2015-08-20-07-22-3790%Daily2015-08-20 07:21
http://www.ilustradordigital.es/2015-08-18-20-25-3390%Daily2015-08-19 07:25
http://www.ilustradordigital.es/telde-salda-su-deuda-con-la-seguridad-social90%Daily2015-08-19 06:50
http://www.ilustradordigital.es/2015-08-18-19-47-5690%Daily2015-08-19 06:46
http://www.ilustradordigital.es/2015-08-18-20-15-1590%Daily2015-08-19 06:14
http://www.ilustradordigital.es/2015-08-18-20-00-4390%Daily2015-08-19 06:00
http://www.ilustradordigital.es/2015-08-18-15-31-1190%Daily2015-08-18 15:16
http://www.ilustradordigital.es/2015-08-18-15-02-2090%Daily2015-08-18 14:59
http://www.ilustradordigital.es/2015-08-18-08-28-5690%Daily2015-08-18 08:28
http://www.ilustradordigital.es/2015-08-18-08-27-5190%Daily2015-08-18 08:27
http://www.ilustradordigital.es/concierto-de-tom-jones-en-tenerife90%Daily2015-08-18 07:55
http://www.ilustradordigital.es/lpgc-destina-5000-euros-al-transporte-de-alimentos-a-familias-sin-recursos90%Daily2015-08-17 18:44
http://www.ilustradordigital.es/el-cabildo-de-gran-canaria-apuesta-por-el-empleo-joven90%Daily2015-08-17 17:02
http://www.ilustradordigital.es/bankia-destina-600000-euros-en-2015-para-proyectos-sociales-en-canarias90%Daily2015-08-17 14:41
http://www.ilustradordigital.es/24753-canarios-esperan-para-ser-operados90%Daily2015-08-17 14:08
http://www.ilustradordigital.es/2015-08-17-06-03-5790%Daily2015-08-17 05:59
http://www.ilustradordigital.es/2015-08-17-05-41-4690%Daily2016-04-22 09:16
http://www.ilustradordigital.es/2015-08-16-17-47-0090%Daily2015-08-16 17:45
http://www.ilustradordigital.es/2015-08-16-07-48-5590%Daily2015-08-16 07:47
http://www.ilustradordigital.es/el-paro-desciende-con-el-aumento-de-contratos-limitados90%Daily2015-08-16 07:42
http://www.ilustradordigital.es/la-guardia-civil-no-tiene-constancia-de-ninguna-denuncia-presentada-por-rato90%Daily2015-08-16 07:31
http://www.ilustradordigital.es/2015-08-16-07-08-0690%Daily2016-04-21 11:12
http://www.ilustradordigital.es/2015-08-15-07-34-0990%Daily2015-08-15 07:33
http://www.ilustradordigital.es/reabiertos-los-accesos-a-el-confital90%Daily2015-08-15 07:26
http://www.ilustradordigital.es/cierre-operativo-nocturno-en-los-rodeos90%Daily2015-08-15 07:20
http://www.ilustradordigital.es/2015-08-15-07-23-0490%Daily2015-08-15 07:19
http://www.ilustradordigital.es/el-restaurante-de-la-cascada-en-villa-escudero90%Daily2015-08-15 07:06
http://www.ilustradordigital.es/rato-se-siente-amenazado90%Daily2015-08-14 16:15
http://www.ilustradordigital.es/finaliza-la-alerta-por-lluvias90%Daily2015-08-14 13:37
http://www.ilustradordigital.es/2015-08-14-06-48-2790%Daily2015-08-14 06:46
http://www.ilustradordigital.es/ve-y-pon-un-centinela90%Daily2015-08-14 06:35
http://www.ilustradordigital.es/2015-08-14-06-35-1190%Daily2015-08-14 06:32
http://www.ilustradordigital.es/2015-08-13-16-53-4190%Daily2015-08-13 16:53
http://www.ilustradordigital.es/el-gobierno-de-canarias-activa-el-plan-de-emergencias-debido-a-las-lluvias90%Daily2015-08-13 16:38
http://www.ilustradordigital.es/la-casa-del-corsario-amaro-pargo-en-ruinas90%Daily2015-08-13 07:10
http://www.ilustradordigital.es/el-tenerife-se-lleva-la-copa-mahou90%Daily2015-08-13 06:53
http://www.ilustradordigital.es/2015-08-13-04-50-4590%Daily2015-08-13 04:50
http://www.ilustradordigital.es/la-british-library-necesita-tu-ayuda90%Daily2016-04-21 16:18
http://www.ilustradordigital.es/igic-reducido-para-el-sector-de-las-flores-y-las-platas-en-canarias90%Daily2015-08-12 17:44
http://www.ilustradordigital.es/el-gobierno-regional-acelera-las-ayudas-de-hipoteca-joven-canarias90%Daily2015-08-12 17:38
http://www.ilustradordigital.es/recuperan-el-cuerpo-sin-vida-de-un-pescador-en-la-palma90%Daily2015-08-12 17:32
http://www.ilustradordigital.es/espectacular-incendio-en-el-muelle-de-honduras-de-sctf90%Daily2015-08-12 17:24
http://www.ilustradordigital.es/2015-08-12-07-14-5590%Daily2015-08-12 07:13
http://www.ilustradordigital.es/de-ratas-y-palomas90%Daily2016-04-22 09:59
http://www.ilustradordigital.es/sctf-tranquiliza-a-los-vecinos-de-igueste-sobre-el-expediente-catastral90%Daily2015-08-12 05:42
http://www.ilustradordigital.es/2015-08-12-00-34-3290%Daily2015-08-12 05:31
http://www.ilustradordigital.es/vuelven-las-perseidas90%Daily2015-08-11 16:35
http://www.ilustradordigital.es/2015-08-11-16-24-1590%Daily2015-08-11 16:21
http://www.ilustradordigital.es/2015-08-11-16-15-3490%Daily2015-08-11 16:10
http://www.ilustradordigital.es/2015-08-11-07-34-2590%Daily2015-08-11 07:32
http://www.ilustradordigital.es/abraham-mateo-visita-canarias90%Daily2015-08-11 07:25
http://www.ilustradordigital.es/tormentas-tropicales-en-canarias90%Daily2015-08-11 07:14
http://www.ilustradordigital.es/fallece-ahogado-en-fuerteventura-490%Daily2015-08-11 06:58
http://www.ilustradordigital.es/2015-08-10-16-04-2490%Daily2015-08-10 15:56
http://www.ilustradordigital.es/2015-08-10-15-55-0590%Daily2015-08-10 15:54
http://www.ilustradordigital.es/2015-08-10-05-41-2090%Daily2015-08-10 05:40
http://www.ilustradordigital.es/herida-durante-un-incendio-en-gran-canaria90%Daily2015-08-10 05:39
http://www.ilustradordigital.es/2015-08-10-05-34-3790%Daily2015-08-10 05:33
http://www.ilustradordigital.es/2015-08-10-05-10-4990%Daily2016-04-22 09:17
http://www.ilustradordigital.es/alerta-amarilla-por-lluvias-890%Daily2015-08-09 17:40
http://www.ilustradordigital.es/2015-08-09-07-52-4290%Daily2015-08-09 07:52
http://www.ilustradordigital.es/precariedad-laboral-generalizada-en-canarias90%Daily2015-08-09 07:43
http://www.ilustradordigital.es/29324-canarios-se-han-beneficiado-de-la-tarifa-plana-de-50-euros90%Daily2015-08-09 07:01
http://www.ilustradordigital.es/2015-08-09-05-40-3090%Daily2016-04-21 11:13
http://www.ilustradordigital.es/la-ciudadela-de-fasil-ghebi90%Daily2015-08-08 07:52
http://www.ilustradordigital.es/2015-08-08-07-56-1590%Daily2015-08-08 07:50
http://www.ilustradordigital.es/2015-08-08-07-33-1390%Daily2015-08-08 07:32
http://www.ilustradordigital.es/2015-08-08-07-25-3290%Daily2015-08-08 07:19
http://www.ilustradordigital.es/el-rapto-en-gran-canaria-parece-una-falsa-alarma90%Daily2015-08-07 17:04
http://www.ilustradordigital.es/2015-08-07-16-19-2890%Daily2015-08-07 16:12
http://www.ilustradordigital.es/2015-08-07-15-46-2590%Daily2015-08-07 15:42
http://www.ilustradordigital.es/el-gran-sueldo-de-tu-vida-toca-en-gran-canaria90%Daily2015-08-07 06:14
http://www.ilustradordigital.es/2015-08-07-06-07-5490%Daily2015-08-07 05:55
http://www.ilustradordigital.es/fallece-ahogada-en-una-playa-de-telde90%Daily2015-08-07 05:43
http://www.ilustradordigital.es/iii-certamen-literario-cartas-para-una-fiesta90%Daily2015-08-07 05:33
http://www.ilustradordigital.es/2015-08-06-16-41-1390%Daily2015-08-06 16:37
http://www.ilustradordigital.es/el-33-por-ciento-de-los-turistas-llega-a-canarias-con-el-todo-incluido90%Daily2015-08-06 16:28
http://www.ilustradordigital.es/2015-08-06-16-25-1390%Daily2015-08-06 16:21
http://www.ilustradordigital.es/2015-08-06-09-25-4590%Daily2015-08-06 09:24
http://www.ilustradordigital.es/herido-grave-al-caer-por-una-ladera-en-la-palma90%Daily2015-08-06 07:37
http://www.ilustradordigital.es/supuesto-rapto-de-una-menor-al-sur-de-gran-canaria90%Daily2015-08-06 07:32
http://www.ilustradordigital.es/2015-08-06-07-32-1490%Daily2015-08-06 07:31
http://www.ilustradordigital.es/2015-08-05-16-17-2490%Daily2015-08-05 16:15
http://www.ilustradordigital.es/2015-08-05-15-28-3790%Daily2015-08-05 15:20
http://www.ilustradordigital.es/2015-08-05-08-03-2490%Daily2015-08-05 08:01
http://www.ilustradordigital.es/2015-08-05-07-53-3790%Daily2015-08-05 07:53
http://www.ilustradordigital.es/ambiente-festivo-en-agaete90%Daily2015-08-05 07:46
http://www.ilustradordigital.es/la-reforma-laboral-trajo-impresa-la-ley-mordaza90%Daily2016-04-22 09:18
http://www.ilustradordigital.es/canarias-se-queda-a-la-cola-de-los-presupuestos-generales90%Daily2015-08-04 18:16
http://www.ilustradordigital.es/el-paro-baja-en-julio-en-4317-personas90%Daily2015-08-04 08:50
http://www.ilustradordigital.es/los-juzgados-de-la-orotava-no-pueden-soportar-tanta-carga-de-trabajo90%Daily2015-08-04 07:24
http://www.ilustradordigital.es/llega-a-gran-canaria-una-patera-con-32-inmigrantes90%Daily2015-08-04 07:15
http://www.ilustradordigital.es/jameos-festival-201590%Daily2015-08-04 07:03
http://www.ilustradordigital.es/ciudadanos-critica-el-reparto-del-ayuntamiento-de-arucas90%Daily2015-08-03 16:58
http://www.ilustradordigital.es/detenido-por-intentar-agredir-sexualmente-a-una-mujer90%Daily2015-08-03 16:51
http://www.ilustradordigital.es/2015-08-03-06-46-5190%Daily2015-08-03 06:45
http://www.ilustradordigital.es/2015-08-03-06-44-4890%Daily2015-08-03 06:37
http://www.ilustradordigital.es/2015-08-03-06-26-2490%Daily2015-08-03 06:18
http://www.ilustradordigital.es/2015-08-03-06-02-1890%Daily2016-04-22 10:00
http://www.ilustradordigital.es/2015-08-02-06-47-1090%Daily2015-08-02 06:45
http://www.ilustradordigital.es/2015-08-02-06-36-1690%Daily2016-04-21 11:14
http://www.ilustradordigital.es/2015-08-02-06-35-0790%Daily2015-08-02 06:34
http://www.ilustradordigital.es/en-cd-tenerife-toma-ventaja-en-la-copa-mahou90%Daily2015-08-02 06:22
http://www.ilustradordigital.es/15-millones-para-cerrar-el-anillo-insular-de-tenerife90%Daily2015-08-01 06:37
http://www.ilustradordigital.es/2015-08-01-06-28-3590%Daily2015-08-01 06:27
http://www.ilustradordigital.es/el-cabildo-aprueba-el-plan-territorial-del-tren-del-sur90%Daily2015-08-01 06:23
http://www.ilustradordigital.es/2015-08-01-06-17-4690%Daily2015-08-01 06:17
http://www.ilustradordigital.es/2015-08-01-06-09-1790%Daily2015-08-01 06:08
http://www.ilustradordigital.es/2015-08-01-06-08-3590%Daily2015-08-01 06:01